Content
SEND FEEDBACK

Daily
Averages
Monthly
Summary
Grenada

SAINT GEORGE'S, GRENADA


Home > Caribbean > Grenada
Elevation: 23 feet     Latitude: 12 01N     Longitude: 061 48W

WEATHER
 
SELECT A DAY
Number of Records: 153,537;   Date Range: 6/30/96 - 7/23/14
 
SHARE

PRINT THIS DATA

[ ← Previous Day ]
WEATHER ALMANAC - JANUARY 19, 2013
[ Next Day → ]
[ °C ]   °F
Weather ElementAverageHighLow
Temperature77.9 °F84.2 °F (12:00 pm)71.6 °F (7:00 am)
Dewpoint69.2 °F74 °F (11:00 am) (7:00 pm)
Humidity80.4 %94 % (5:00 am)63 % (5:00 pm)
Barometer29.97 in30.04 in (10:00 am)29.92 in (2:00 pm)
Wind Speed4.6 mph11.5 mph (1:00 pm)
Weather ElementAverage
Visibility7.5 mi
Wind DirectionENE (51.2 °)

Weather ElementTotal
Precipitation---
Cooling Degree Days12.9 (Base 65)
Growing Degree Days27.9 (Base 50)
Averaged from 29 records on January 19, 2013
WEATHER CONDITIONS BREAKOUT
WIND DIRECTION BREAKOUT
WEATHER BY HOUR - JANUARY 19, 2013
[ °C ]   °F
Local TimeTemperatureDewpointHumidityBarometerVisibilityWind DirectionWind SpeedGust SpeedPrecipitationEventsConditions
1:00 AM77.0 °F69.8 °F78 %29.98 in6.2 miCalmPartly Cloudy
2:00 AM73.0 °F70.0 °F87 %29.97 in16.0 miCalmScattered Clouds
2:00 AM73.4 °F69.8 °F88 %29.95 in6.2 miCalmPartly Cloudy
5:00 AM73.0 °F71.0 °F91 %29.96 in16.0 miCalmMostly Cloudy
5:00 AM73.4 °F71.6 °F94 %29.95 in6.2 miCalmMostly Cloudy
6:00 AM75.2 °F71.6 °F89 %29.98 in6.2 miEast (80°)8.1 mphMostly Cloudy
7:00 AM71.6 °F69.8 °F94 %29.98 in3.7 miCalmRainLight Rain Showers
8:00 AM75.2 °F71.6 °F89 %30.01 in4.3 miCalmScattered Clouds
8:00 AM75.0 °F72.0 °F89 %30.01 in4.0 miCalmRainLight Rain Showers
8:45 AM78.8 °F0.0 °F30.01 in5.6 miNNE (30°)3.5 mphMostly Cloudy
9:00 AM78.8 °F73.4 °F83 %30.01 in6.2 miCalmPartly Cloudy
10:00 AM78.8 °F73.4 °F83 %30.04 in6.2 miNE (40°)6.9 mphMostly Cloudy
11:00 AM82.0 °F74.0 °F69 %30.02 in11.0 miENE (60°)9.2 mphPartly Cloudy
11:00 AM82.4 °F73.4 °F74 %30.01 in6.2 miENE (60°)9.2 mphScattered Clouds
12:00 PM84.2 °F73.4 °F70 %29.98 in6.2 miEast (100°)9.2 mphMostly Cloudy
1:00 PM82.4 °F73.4 °F74 %29.95 in6.2 miEast (80°)11.5 mphMostly Cloudy
2:00 PM82.4 °F71.6 °F70 %29.92 in6.2 miNE (50°)9.2 mphMostly Cloudy
3:00 PM80.6 °F73.4 °F79 %29.92 in6.2 miNE (40°)5.8 mphMostly Cloudy
4:00 PM80.6 °F73.4 °F79 %29.92 in6.2 miEast (100°)11.5 mphMostly Cloudy
5:00 PM81.0 °F70.0 °F63 %29.94 in12.0 miEast (100°)11.5 mphMostly Cloudy
5:00 PM80.6 °F69.8 °F70 %29.92 in6.2 miEast (100°)11.5 mphMostly Cloudy
6:00 PM78.8 °F71.6 °F78 %29.92 in6.2 miEast (100°)8.1 mphMostly Cloudy
7:00 PM78.8 °F71.6 °F78 %29.95 in6.2 miCalmMostly Cloudy
8:00 PM78.0 °F72.0 °F78 %29.97 in14.0 miCalmWidespread Dust
8:00 PM78.8 °F71.6 °F78 %29.98 in6.2 miCalmMostly Cloudy
9:00 PM77.0 °F71.6 °F83 %29.98 in6.2 miENE (70°)3.5 mphScattered Clouds
10:00 PM77.0 °F71.6 °F83 %29.98 in6.2 miEast (90°)4.6 mphScattered Clouds
11:00 PM76.0 °F70.0 °F76 %29.99 in14.0 miEast (90°)4.6 mphWidespread Dust
11:00 PM75.2 °F69.8 °F83 %29.98 in6.2 miEast (90°)4.6 mphPartly Cloudy
Hourly data recorded from TGPY, located miles away from Saint George's, Grenada







STORIES FROM OUR PARTNERS